Temperature
-1 -1 -1 -1 -0 -0 -0 0 0 0 1 1 1 1 2 2 2 3 3 3 3 3 4 4 4 4 4 4 4 4 4 4 4 4 4 4 4 4 4 4 4 4 4
-2 -1 -1 -1 -1 -1 -1 -0 -0 -0 0 0 1 1 1 2 2 2 2 3 3 3 3 3 4 4 4 4 4 4 4 4 3 4 4 4 4 4 4 4 4 4 4
-2 -2 -2 -2 -2 -2 -2 -1 -1 -1 -0 -0 0 0 1 1 1 2 2 2 2 2 3 3 3 3 3 3 3 3 3 3 3 3 3 3 3 3 3 3 3 3 3
-3 -3 -3 -3 -2 -2 -2 -2 -2 -1 -1 -1 -0 -0 0 1 1 1 1 2 2 2 2 2 2 3 3 3 3 3 3 3 3 3 3 2 2 3 2 3 2 2 3
-3 -3 -3 -3 -3 -3 -3 -2 -2 -2 -2 -1 -1 -1 -0 0 0 1 1 1 1 1 2 2 2 2 2 3 3 2 2 2 2 2 2 2 2 2 2 2 2 2 2
-4 -4 -4 -4 -4 -3 -3 -3 -3 -2 -2 -2 -2 -1 -1 -0 0 0 1 1 1 1 1 1 2 2 2 2 2 2 2 2 2 2 2 2 2 2 2 2 1 1 1
-5 -5 -4 -4 -4 -4 -4 -3 -3 -3 -3 -2 -2 -2 -1 -1 -0 -0 -0 0 0 1 1 1 1 1 1 2 2 1 1 1 1 1 1 1 1 1 1 1 1 1 1
-5 -5 -5 -5 -5 -4 -4 -4 -4 -3 -3 -3 -2 -2 -2 -1 -1 -1 -1 -0 -0 -0 -0 0 0 1 1 1 1 1 1 1 1 1 1 1 1 1 1 1 1 0 0
-6 -6 -6 -6 -5 -5 -5 -5 -4 -4 -4 -3 -3 -3 -2 -2 -2 -1 -1 -1 -1 -1 -1 -0 -0 -0 0 0 0 0 0 0 0 0 1 1 1 1 0 0 -0 -0 -0
-6 -6 -6 -6 -6 -6 -5 -5 -5 -5 -4 -4 -3 -3 -3 -3 -2 -2 -2 -2 -2 -2 -1 -1 -1 -1 -1 -0 -0 -0 -0 -0 -0 -0 -0 -0 -0 -0 -0 -0 -0 -0 -1
-7 -7 -7 -6 -6 -6 -6 -6 -5 -5 -5 -4 -4 -4 -4 -3 -3 -3 -3 -3 -3 -2 -2 -2 -2 -1 -1 -1 -1 -1 -1 -1 -1 -1 -1 -1 -1 -1 -1 -1 -1 -1 -1
-7 -7 -7 -7 -7 -6 -6 -6 -6 -6 -5 -5 -5 -4 -4 -4 -4 -4 -3 -3 -3 -3 -3 -3 -2 -2 -2 -2 -2 -2 -1 -1 -1 -1 -1 -1 -1 -1 -1 -1 -1 -1 -1
-7 -7 -7 -7 -7 -7 -7 -7 -6 -6 -6 -6 -6 -5 -5 -5 -4 -4 -4 -4 -4 -4 -4 -3 -3 -3 -3 -2 -2 -2 -2 -2 -2 -2 -2 -2 -2 -2 -2 -2 -2 -2 -2
-8 -8 -8 -7 -7 -7 -7 -7 -7 -7 -7 -7 -6 -6 -6 -6 -5 -5 -5 -5 -4 -4 -4 -4 -4 -3 -3 -3 -3 -3 -3 -3 -2 -2 -2 -2 -2 -2 -2 -2 -2 -2 -3
-8 -8 -8 -8 -8 -8 -7 -7 -7 -7 -7 -7 -7 -7 -7 -6 -6 -6 -6 -5 -5 -5 -5 -5 -4 -4 -4 -4 -4 -3 -3 -3 -3 -3 -3 -3 -3 -3 -3 -3 -3 -3 -3
-9 -9 -9 -8 -8 -8 -8 -8 -7 -7 -7 -7 -7 -7 -7 -7 -6 -6 -6 -6 -6 -5 -5 -5 -5 -5 -5 -4 -4 -4 -4 -4 -4 -4 -4 -4 -4 -4 -4 -4 -4 -4 -4
-9 -9 -9 -9 -9 -9 -9 -8 -8 -8 -8 -8 -7 -7 -7 -7 -7 -6 -6 -6 -6 -6 -6 -5 -5 -5 -5 -5 -4 -4 -4 -4 -4 -4 -4 -4 -4 -4 -4 -4 -4 -4 -4
-9 -9 -9 -9 -9 -9 -9 -9 -9 -9 -8 -8 -8 -8 -8 -7 -7 -7 -7 -6 -6 -6 -6 -6 -6 -6 -5 -5 -5 -5 -5 -5 -5 -5 -5 -5 -5 -5 -5 -5 -5 -5 -5
-9 -10 -9 -9 -9 -9 -9 -9 -9 -9 -9 -9 -8 -8 -8 -8 -7 -7 -7 -7 -7 -7 -7 -6 -6 -6 -6 -6 -6 -5 -5 -5 -5 -5 -5 -5 -5 -5 -5 -5 -5 -5 -5
-10 -10 -10 -10 -10 -10 -10 -10 -9 -9 -9 -9 -9 -9 -8 -8 -8 -8 -8 -8 -8 -7 -7 -7 -7 -6 -6 -6 -6 -6 -6 -6 -6 -6 -5 -5 -6 -6 -6 -6 -6 -6 -6
-10 -10 -10 -10 -10 -10 -10 -10 -10 -10 -10 -9 -9 -9 -9 -9 -9 -9 -8 -8 -8 -8 -7 -7 -7 -7 -7 -7 -6 -6 -6 -6 -6 -6 -6 -6 -6 -6 -6 -6 -6 -6 -6
-10 -10 -10 -10 -10 -10 -10 -10 -10 -10 -10 -10 -9 -9 -9 -9 -9 -9 -9 -9 -8 -8 -8 -8 -8 -7 -7 -7 -7 -7 -7 -7 -7 -7 -7 -6 -7 -7 -7 -7 -7 -7 -7
-11 -11 -11 -11 -11 -11 -11 -10 -10 -10 -10 -10 -10 -10 -10 -9 -9 -9 -9 -9 -9 -9 -9 -8 -8 -8 -8 -7 -7 -7 -7 -7 -7 -7 -7 -7 -7 -7 -7 -7 -7 -7 -7
-11 -11 -11 -11 -11 -11 -11 -11 -11 -11 -10 -10 -10 -10 -10 -10 -10 -10 -9 -9 -9 -9 -9 -9 -8 -8 -8 -8 -8 -8 -7 -7 -7 -7 -7 -7 -7 -7 -7 -7 -7 -7 -7
-11 -11 -11 -11 -11 -11 -11 -11 -11 -11 -11 -11 -11 -11 -10 -10 -10 -10 -10 -10 -9 -9 -9 -9 -9 -9 -8 -8 -8 -8 -8 -8 -8 -8 -8 -8 -8 -8 -8 -7 -7 -7 -8
-12 -12 -12 -12 -12 -12 -12 -12 -11 -11 -11 -11 -11 -11 -11 -11 -11 -10 -10 -10 -10 -10 -9 -9 -9 -9 -9 -8 -8 -8 -8 -8 -8 -8 -8 -8 -8 -8 -8 -8 -8 -8 -8
Wind_Speed
8 7 7 7 7 7 6 7 7 6 6 6 6 7 7 7 7 7 7 7 8 7 7 8 9 7 6 6 5 5 5 5 4 3 2 3 4 4 3 4 4 4 4
8 8 7 7 7 7 7 7 7 7 7 7 6 6 7 7 7 8 8 8 8 8 8 8 9 7 8 7 6 7 6 5 5 5 3 3 4 5 4 3 3 3 4
8 8 8 8 8 8 8 7 7 7 7 7 6 7 7 8 8 8 8 8 9 9 8 9 9 9 10 7 8 7 6 5 5 5 4 3 3 4 4 3 3 3 3
8 8 8 8 8 8 8 8 7 7 7 7 7 7 7 7 7 7 8 8 8 9 9 9 9 9 10 9 8 8 6 6 6 5 5 4 3 3 4 4 3 3 2
9 8 8 8 8 8 8 8 7 7 7 7 7 7 7 6 6 7 7 8 8 8 8 9 8 9 9 8 7 8 7 7 6 6 6 4 5 4 5 4 4 3 3
9 9 8 8 8 8 8 8 7 7 7 6 7 7 7 6 8 9 8 7 8 8 8 7 7 8 10 10 9 9 9 9 8 7 6 7 7 6 5 5 5 4 4
9 9 8 8 8 8 8 8 7 7 7 7 7 7 7 8 9 9 8 7 7 7 7 6 5 6 8 8 8 9 9 10 10 9 9 9 8 8 6 6 6 6 5
9 9 8 8 8 8 8 8 8 7 7 6 7 7 7 7 8 8 7 6 6 6 6 6 6 6 7 7 6 7 7 8 8 8 8 9 7 7 7 7 6 5 3
9 9 9 8 8 8 8 8 8 7 7 7 7 7 7 7 7 7 6 4 4 5 5 5 6 6 7 8 7 7 6 5 5 6 7 7 7 7 7 5 5 5 4
9 10 9 9 9 9 8 8 7 7 7 6 7 7 7 7 7 6 5 3 4 3 3 4 6 7 7 7 8 8 8 6 5 4 4 5 5 7 8 7 6 6 4
10 10 10 9 9 9 8 7 7 6 6 6 6 6 6 6 6 6 5 4 4 4 4 4 4 6 7 7 7 7 8 6 5 5 4 4 4 4 5 5 5 5 6
9 9 9 9 8 7 8 7 7 6 6 5 5 5 4 4 5 5 6 6 5 5 4 4 4 6 7 7 6 6 7 6 5 5 5 5 4 4 3 3 3 2 3
10 10 9 9 8 7 7 7 6 5 5 4 4 4 4 4 4 5 5 5 5 4 4 5 5 6 6 5 6 7 6 5 5 5 5 5 4 4 3 2 1 1 1
10 10 9 8 8 7 6 6 5 5 4 4 4 4 4 4 4 3 3 4 4 3 3 3 4 4 4 4 5 5 5 5 5 5 4 4 3 3 4 3 3 3 2
10 9 8 7 7 7 6 6 6 5 5 5 4 5 5 5 5 6 5 4 3 3 2 2 2 3 3 3 3 3 4 4 4 4 4 4 4 4 4 3 3 3 4
8 8 7 6 6 6 6 6 6 6 7 7 7 7 6 7 7 6 7 6 5 4 3 3 3 3 4 4 3 3 3 4 4 4 4 5 5 4 4 3 3 4 4
8 8 7 6 6 6 6 6 6 6 5 6 6 7 8 7 6 6 6 6 5 5 3 3 4 4 3 3 3 3 3 3 3 4 5 5 4 4 4 4 4 4 4
8 8 7 6 6 6 6 6 5 5 5 5 5 6 7 7 6 5 5 3 3 3 3 3 3 3 3 3 3 3 3 3 3 4 4 4 5 5 5 5 5 5 5
7 6 6 6 6 6 6 5 5 5 5 5 5 5 5 6 5 4 3 2 2 3 3 3 3 3 3 3 3 3 3 3 3 4 4 5 5 5 5 5 5 6 6
6 8 7 6 5 5 5 5 4 5 5 5 4 4 4 4 3 3 2 2 2 3 3 3 3 3 3 3 3 3 3 3 4 4 4 5 5 5 6 6 6 6 6
6 6 7 6 5 5 4 4 4 5 5 5 4 5 5 3 3 3 3 3 3 3 3 3 3 3 3 3 3 3 4 4 4 4 4 4 4 5 5 6 6 6 5
6 5 5 5 5 4 5 4 5 5 5 5 4 5 5 4 3 3 3 4 3 3 3 3 3 3 3 4 4 4 4 4 4 4 4 4 4 5 5 5 6 6 6
5 5 5 5 4 5 5 4 4 4 4 4 4 4 4 3 3 4 4 4 3 3 3 3 3 3 3 4 4 4 5 5 4 5 4 4 4 5 5 6 7 7 7
5 5 5 5 4 4 5 4 4 4 4 4 4 4 4 4 4 4 4 4 3 3 3 3 4 4 5 4 4 5 5 5 5 6 6 5 5 5 5 6 7 7 7
5 4 4 4 4 4 4 4 4 4 4 4 4 4 4 4 4 4 4 4 4 4 4 4 4 4 5 5 5 5 6 7 6 5 5 5 6 6 6 6 6 6 6
4 4 4 4 4 4 4 4 5 5 5 4 4 4 4 4 4 4 4 4 4 4 4 4 4 5 5 5 6 6 7 7 6 6 5 5 5 5 6 5 6 6 7
Wind_Direction
321 316 314 313 308 304 298 293 293 291 287 279 275 273 268 261 256 247 242 238 236 235 229 226 226 217 212 210 210 211 214 215 223 245 236 207 205 203 197 203 209 208 202
318 314 312 310 308 306 301 297 295 291 289 283 277 272 268 261 256 250 245 239 236 235 233 230 228 217 215 212 210 212 212 212 215 223 231 216 217 203 200 203 214 209 207
315 312 309 308 306 304 302 298 295 291 288 286 278 269 269 264 255 251 246 240 239 239 237 235 232 220 216 214 212 214 213 210 211 210 221 219 220 202 199 209 214 214 212
313 308 306 306 303 299 300 298 295 290 285 283 277 271 268 266 259 253 247 240 240 240 239 237 235 227 220 215 212 213 210 206 203 204 209 213 214 208 202 206 215 217 224
310 306 306 307 306 302 301 298 295 290 285 282 277 273 270 267 263 261 252 244 241 240 238 236 235 232 225 217 213 210 204 207 205 205 207 212 212 203 208 210 213 217 243
308 305 306 306 306 304 301 299 293 289 286 282 278 276 273 270 271 270 263 249 242 238 236 236 233 228 220 218 217 216 213 210 208 208 215 214 219 218 213 204 203 216 240
307 306 306 306 304 302 300 298 291 287 285 279 278 275 274 275 275 274 272 259 245 239 236 234 234 230 217 215 212 213 219 223 221 218 218 219 219 214 207 209 211 219 237
309 308 307 307 303 302 300 298 293 288 284 281 280 278 276 274 276 278 279 269 252 243 240 236 234 233 220 211 210 215 223 227 226 225 224 224 220 210 207 212 217 224 235
308 305 304 302 300 299 297 297 294 288 285 283 282 280 276 274 273 274 278 270 258 250 247 242 234 234 222 211 207 212 220 229 223 225 228 221 213 209 201 194 201 208 232
308 306 303 300 297 294 293 293 292 286 281 281 279 277 275 273 271 270 271 263 258 259 259 250 239 233 222 216 213 210 216 219 211 205 204 202 201 198 200 208 208 211 222
309 306 304 301 297 294 293 291 291 285 282 279 280 281 277 275 270 267 269 261 253 254 253 251 244 232 228 228 232 222 214 211 210 205 204 203 200 202 207 214 219 217 218
307 305 304 303 301 296 294 293 292 284 281 282 284 287 286 282 276 269 269 265 262 254 251 251 244 235 235 232 232 214 199 203 206 200 202 206 206 207 210 210 218 240 248
307 305 305 305 301 296 293 292 291 283 278 280 283 289 295 295 289 280 276 273 262 258 254 252 249 238 233 228 216 200 198 205 202 202 207 214 213 205 194 187 192 201 262
303 303 303 302 301 299 294 289 286 278 275 279 285 289 292 292 292 291 282 275 258 255 250 240 232 224 230 227 210 204 212 210 207 206 206 206 201 200 205 206 213 212 231
303 303 304 304 302 301 298 294 288 277 273 279 280 281 283 284 289 296 291 276 263 254 245 247 232 216 220 219 216 210 206 201 203 197 193 196 200 205 210 211 216 218 230
303 303 304 304 303 302 302 302 296 287 290 289 287 288 287 290 295 289 287 281 267 237 231 223 224 223 222 219 219 216 212 208 204 197 197 198 202 205 208 210 214 218 222
299 300 301 301 301 301 300 300 304 308 302 293 291 294 298 304 297 291 289 278 245 221 234 226 227 225 225 223 221 220 225 218 208 200 200 200 201 206 210 213 214 219 226
299 298 298 296 297 296 296 296 295 299 305 305 304 298 305 309 310 307 301 281 238 227 236 229 229 226 225 225 225 224 218 211 210 205 203 203 205 207 212 217 218 220 224
298 298 298 297 295 294 295 294 293 291 293 298 306 307 312 315 314 309 302 268 256 253 247 238 236 234 232 231 228 225 220 217 216 214 212 211 211 211 215 219 221 218 223
298 297 298 297 295 294 295 293 292 291 292 293 294 300 309 311 304 300 290 283 268 265 262 250 242 239 236 233 228 224 224 221 218 221 218 217 218 217 215 218 221 222 226
303 301 298 294 292 292 292 290 290 290 288 286 287 293 300 292 286 285 285 282 274 271 268 263 253 243 240 237 234 230 230 230 227 226 227 224 222 221 220 220 222 225 226
305 302 297 292 293 292 292 289 289 287 288 288 289 293 295 292 283 281 284 282 281 280 275 266 260 256 247 239 234 232 234 234 231 227 227 228 226 223 220 219 220 222 223
305 303 301 298 295 296 295 292 289 289 290 292 293 291 289 288 286 286 289 288 286 286 281 270 265 263 260 252 243 236 235 235 233 226 227 230 230 229 224 222 221 222 223
308 305 306 307 308 303 298 297 297 296 294 295 295 293 291 290 288 288 290 290 287 288 283 274 265 262 263 265 257 250 242 238 230 220 222 226 231 232 230 226 225 223 223
313 312 311 310 308 305 303 302 299 298 297 297 297 297 297 294 292 292 291 291 289 285 286 280 268 265 263 264 264 259 254 250 244 232 224 224 230 230 231 231 226 223 223
318 315 311 309 306 305 304 304 304 305 301 300 298 297 296 294 292 293 294 294 292 290 289 281 274 272 273 266 263 265 263 254 247 246 238 227 230 231 230 229 226 223 221
Height
1494 1491 1489 1487 1486 1484 1483 1483 1482 1482 1482 1482 1482 1482 1482 1483 1483 1484 1485 1485 1486 1488 1489 1491 1492 1493 1495 1497 1499 1501 1503 1505 1505 1506 1508 1509 1511 1512 1513 1514 1515 1516 1517
1490 1488 1485 1483 1482 1480 1479 1478 1477 1477 1477 1477 1477 1477 1477 1478 1478 1478 1479 1480 1481 1482 1483 1485 1486 1488 1490 1492 1494 1496 1498 1499 1501 1502 1503 1505 1506 1508 1509 1510 1511 1512 1512
1486 1484 1481 1479 1477 1476 1474 1473 1473 1472 1471 1471 1471 1472 1472 1472 1472 1473 1474 1474 1475 1476 1477 1479 1481 1482 1484 1486 1488 1490 1492 1494 1496 1497 1498 1500 1501 1503 1504 1506 1506 1507 1508
1483 1480 1477 1475 1473 1472 1470 1469 1468 1467 1466 1466 1466 1466 1466 1467 1467 1467 1468 1469 1469 1471 1472 1473 1475 1476 1478 1480 1482 1484 1487 1488 1490 1492 1493 1495 1496 1498 1499 1501 1502 1503 1504
1479 1476 1473 1471 1469 1467 1466 1465 1463 1463 1462 1461 1461 1461 1461 1461 1461 1462 1462 1463 1464 1465 1466 1467 1469 1471 1472 1475 1476 1479 1481 1483 1484 1486 1487 1489 1491 1492 1494 1495 1497 1498 1499
1474 1472 1469 1467 1465 1463 1461 1460 1459 1458 1457 1456 1456 1456 1456 1456 1456 1456 1457 1457 1458 1459 1460 1461 1463 1465 1466 1469 1471 1473 1475 1477 1478 1480 1482 1483 1485 1487 1489 1491 1492 1493 1494
1470 1468 1465 1463 1460 1459 1457 1455 1454 1453 1452 1451 1451 1450 1450 1450 1451 1451 1451 1452 1452 1453 1455 1456 1457 1459 1461 1463 1465 1467 1469 1471 1473 1475 1476 1478 1480 1481 1483 1485 1487 1488 1489
1466 1464 1461 1459 1456 1454 1452 1451 1449 1448 1447 1447 1446 1446 1445 1445 1445 1446 1446 1447 1447 1448 1449 1451 1452 1454 1456 1457 1459 1461 1463 1465 1467 1470 1471 1473 1475 1476 1478 1480 1481 1483 1484
1463 1460 1458 1455 1452 1450 1448 1447 1445 1444 1443 1442 1442 1441 1441 1441 1441 1441 1442 1442 1442 1443 1444 1446 1447 1449 1450 1452 1454 1455 1457 1460 1462 1464 1466 1467 1469 1471 1473 1474 1476 1477 1478
1459 1457 1454 1451 1449 1446 1444 1443 1441 1440 1439 1438 1437 1437 1437 1436 1436 1437 1437 1437 1438 1438 1439 1441 1442 1444 1445 1447 1448 1450 1452 1454 1457 1459 1460 1462 1464 1465 1467 1469 1471 1472 1472
1456 1453 1450 1448 1445 1443 1441 1439 1437 1436 1434 1434 1433 1433 1432 1432 1432 1432 1433 1433 1434 1434 1435 1436 1437 1439 1440 1442 1443 1445 1446 1449 1451 1453 1455 1456 1458 1460 1462 1464 1465 1467 1468
1452 1449 1446 1444 1441 1439 1437 1435 1434 1432 1431 1430 1429 1429 1428 1428 1428 1428 1428 1429 1430 1430 1430 1431 1432 1433 1435 1436 1438 1440 1442 1444 1446 1447 1449 1451 1453 1455 1457 1459 1460 1461 1463
1448 1445 1442 1440 1437 1435 1433 1431 1430 1429 1427 1426 1425 1425 1424 1424 1424 1424 1424 1425 1426 1426 1426 1427 1428 1429 1430 1431 1433 1435 1436 1438 1440 1442 1443 1445 1448 1450 1452 1454 1455 1456 1457
1444 1441 1438 1436 1433 1431 1429 1428 1426 1425 1424 1423 1422 1421 1420 1420 1420 1420 1420 1421 1421 1422 1422 1423 1423 1424 1425 1427 1428 1430 1431 1433 1435 1436 1438 1441 1443 1445 1446 1448 1450 1451 1452
1441 1438 1435 1432 1430 1427 1426 1424 1423 1422 1421 1420 1419 1418 1418 1416 1416 1417 1417 1417 1417 1418 1419 1419 1419 1420 1421 1422 1423 1425 1427 1429 1430 1432 1434 1436 1438 1440 1441 1443 1444 1445 1446
1437 1434 1431 1429 1426 1424 1422 1420 1419 1419 1418 1417 1416 1416 1415 1415 1414 1413 1413 1414 1414 1415 1415 1415 1416 1416 1417 1418 1419 1421 1423 1424 1426 1428 1430 1431 1433 1435 1436 1438 1439 1441 1441
1434 1431 1428 1426 1423 1421 1419 1417 1415 1415 1414 1414 1413 1412 1412 1411 1411 1410 1410 1411 1411 1412 1412 1412 1412 1413 1414 1415 1416 1417 1419 1420 1422 1423 1425 1427 1428 1430 1431 1433 1434 1435 1436
1430 1428 1425 1423 1420 1418 1417 1415 1414 1412 1410 1410 1410 1409 1409 1408 1408 1407 1407 1408 1408 1408 1408 1409 1409 1410 1411 1412 1413 1414 1415 1416 1418 1419 1421 1422 1424 1425 1427 1428 1429 1430 1431
1427 1424 1422 1420 1418 1416 1414 1413 1411 1410 1409 1408 1407 1406 1406 1405 1405 1405 1405 1405 1404 1405 1405 1406 1406 1407 1408 1408 1409 1410 1411 1412 1413 1415 1416 1418 1419 1421 1422 1423 1424 1425 1426
1424 1422 1419 1417 1415 1413 1412 1410 1409 1408 1407 1406 1405 1404 1403 1403 1402 1402 1402 1402 1402 1402 1402 1403 1403 1404 1405 1405 1406 1407 1408 1409 1410 1411 1412 1413 1415 1416 1417 1418 1419 1420 1421
1421 1419 1417 1415 1413 1411 1409 1408 1407 1406 1404 1403 1403 1402 1402 1400 1400 1399 1399 1399 1399 1399 1399 1400 1400 1401 1401 1402 1402 1403 1404 1405 1406 1407 1408 1409 1410 1411 1412 1413 1414 1415 1416
1418 1416 1414 1412 1410 1409 1407 1406 1405 1403 1402 1401 1400 1400 1399 1399 1398 1397 1397 1397 1397 1397 1397 1397 1397 1397 1398 1399 1399 1400 1401 1401 1402 1403 1404 1405 1406 1406 1407 1408 1409 1410 1410
1416 1414 1412 1410 1408 1407 1405 1404 1402 1401 1400 1399 1398 1397 1397 1396 1396 1395 1395 1394 1394 1394 1393 1394 1394 1394 1394 1395 1396 1397 1397 1398 1398 1399 1400 1400 1401 1401 1402 1403 1404 1404 1405
1414 1412 1410 1408 1406 1405 1403 1402 1400 1399 1398 1397 1396 1395 1394 1394 1393 1393 1392 1391 1391 1390 1390 1390 1390 1391 1391 1391 1392 1393 1394 1394 1395 1395 1395 1396 1396 1397 1397 1398 1398 1399 1400
1412 1410 1408 1406 1404 1402 1401 1400 1398 1397 1396 1395 1394 1393 1392 1391 1391 1390 1389 1389 1388 1387 1387 1387 1387 1387 1387 1388 1388 1389 1389 1390 1390 1391 1391 1391 1391 1392 1392 1393 1393 1394 1395
1410 1408 1406 1404 1402 1401 1399 1398 1396 1395 1394 1393 1392 1390 1390 1389 1388 1387 1387 1386 1385 1385 1384 1384 1384 1384 1384 1384 1385 1385 1385 1385 1386 1386 1386 1386 1387 1387 1388 1388 1389 1389 1390